Tracking 31027 objects as of 19-Jul-2025
HD Live streaming from Space Station
objects crossing your sky now

STARLINK-4494

Track STARLINK-4494 now!
10-day predictions
STARLINK-4494 is classified as:


NORAD ID: 53558
Int'l Code: 2022-101AH
Perigee: 546.0 km
Apogee: 547.8 km
Inclination: 53.2 °
Period: 95.4 minutes
Semi major axis: 6917 km
RCS: Unknown
Launch date: August 19, 2022
Source: United States (US)
Launch site: AIR FORCE EASTERN TEST RANGE (AFETR)
Your satellite tracking list
STARLINK-2062
Track 1 satellite(s)




NASA's NSSDC Master Catalog

Two Line Element Set (TLE):
1 53558U 22101AH  25199.82648281 -.00000459  00000-0 -10769-4 0  9994
2 53558  53.2184  28.6939 0001324  86.4312 273.6832 15.08835248161072
Source of the keplerian elements: AFSPC